Location: San Gennaro Vesuviano
(40.8833°N, 14.5333°E)
Time: 11:25:54
(UTC+00:00)

CZ-4 R/B - Pass Details

Date: 22 April 2021
Orbit: 531 x 597 km, 97.7° (Epoch: 11 May)

Event Time Altitude Azimuth Distance (km) Brightness Sun altitude
Rises 18:10:09 0° 184° (S) 2,826 4.8 -4.6°
Reaches altitude 10° 18:12:25 10° 191° (SSW) 1,929 4.0 -5.0°
Maximum altitude 18:16:22 40° 262° (W) 885 3.0 -5.7°
Drops below altitude 10° 18:20:20 10° 332° (NNW) 1,932 4.9 -6.4°
Sets 18:22:36 0° 340° (NNW) 2,831 5.7 -6.8°
